Location: Village de las Huertas
(35.3014°N, 106.4095°W)
Time: 17:32:08
(UTC+00:00)

Cosmos 1980 Rocket - Pass Details

Date: 29 October 2020
Orbit: 831 x 848 km, 71.0° (Epoch: 24 November)

Event Time Altitude Azimuth Distance (km) Brightness Sun altitude
Rises 12:52:45 0° 326° (NW) 3,378 4.9 -7.2°
Reaches altitude 10° 12:55:26 10° 316° (NW) 2,441 4.1 -6.7°
Maximum altitude 13:00:13 30° 257° (WSW) 1,455 3.0 -5.7°
Drops below altitude 10° 13:05:01 10° 198° (SSW) 2,435 4.6 -4.8°
Sets 13:07:42 0° 188° (S) 3,367 5.4 -4.2°
